Regional Weather Roundup
Issued by NWS

Home | Current Version | Previous Version | Text Only | Print | Product List | Glossary On
Versions: 1 2 3 4 5 6 7 8 9 10 11 12 13 14 15 16 17 18 19 20 21 22 23 24 25 26 27 28 29 30 31 32 33 34 35 36 37 38 39 40 41 42 43 44 45 46 47 48 49 50
000
ASUS43 KDTX 310401
RWRMI
MICHIGAN HOURLY REGIONAL WEATHER ROUNDUP
NATIONAL WEATHER SERVICE DETROIT/PONTIAC MI
1200 AM EDT FRI JUL 31 2015

NOTE: "FAIR" INDICATES FEW OR NO CLOUDS BELOW 12,000 FEET WITH NO
SIGNIFICANT WEATHER AND/OR OBSTRUCTION TO VISIBILITY.

MIZ047>049-052>055-059>063-066>070-074>076-081>083-310500-
SOUTHEAST LOWER MICHIGAN

CITY           SKY/WX    TMP DP  RH WIND       PRES   REMARKS
ADRIAN         CLEAR     68  59  73 W5        30.00S
ALMA           CLEAR     67  60  78 SW5       29.95S
ANN ARBOR      CLEAR     63  59  87 SW5       29.98S
BAD AXE        CLEAR     64  58  82 CALM      29.93S
CARO           CLEAR     63  59  86 CALM      29.92S
DETROIT CITY   CLEAR     75  57  53 W7        29.96R
DETROIT        CLEAR     72  58  61 SW7       29.97S
FLINT          CLEAR     70  58  65 SW6       29.95S
GROSSE ILE     CLEAR     72  59  64 SW5       29.96S
HILLSDALE      CLEAR     69  58  67 SW3       30.01S
HOWELL         CLEAR     68  56  66 SW5       29.97S

CITY           SKY/WX    TMP DP  RH WIND       PRES   REMARKS
JACKSON        CLEAR     67  59  75 SW5       29.99S
LAMBERTVILLE   CLEAR     72  58  60 SW5       29.99F
LANSING        CLEAR     70  58  65 SW6       29.97S
LAPEER         FAIR      69  59  69 W3        29.95S
MASON          CLEAR     66  57  71 CALM      29.98S
MONROE         CLEAR     68  59  73 CALM      29.97F
MT. CLEMENS    CLEAR     74  58  59 SW5       29.93S
PONTIAC        PTCLDY    71  58  63 SW6       29.96R
PORT HOPE        N/A     67  61  81 S3        29.90F
PORT HURON     CLEAR     64  59  82 CALM      29.94R
TRI CITIES     CLEAR     71  59  65 SW7       29.93S
MIDLAND        FAIR      66  57  74 CALM      29.92S
TROY           CLEAR     74  57  55 W5        29.98R
SAGINAW HB     CLEAR     68  59  73 SW7       29.92F
$$
MIZ043>046-050>051-056>058-064>065-071>073-077>080-310500-
SOUTHWEST LOWER MICHIGAN

CITY           SKY/WX    TMP DP  RH WIND       PRES   REMARKS
BATTLE CREEK   CLEAR     69  59  70 SW9       30.00R
BENTON HARBOR  CLEAR     69  61  75 CALM      29.99S
BIG RAPIDS     CLEAR     69  56  64 W6        29.95R
COLDWATER      CLEAR     66  58  73 SW5       30.00S
FREMONT        FAIR      65  61  87 CALM      29.96R
HOLLAND        CLEAR     75  57  53 W7        29.98R
GRAND RAPIDS   CLEAR     70  60  70 SW8       29.97R
IONIA          FAIR      68  59  72 SW7       29.95S
KALAMAZOO      CLEAR     69  59  70 SW7       30.00R
LUDINGTON      CLEAR     71  63  75 CALM      29.95S
MARSHALL       CLEAR     69  58  69 SW6       29.98S
MOUNT PLEASANT CLEAR     72  58  61 SW6       29.93S
MUSKEGON         N/A     75  56  51 W9        29.96S
SOUTH HAVEN    CLEAR     74  61  63 W3        29.99R
$$
MIZ016>042-310500-
NORTHERN LOWER MICHIGAN

CITY           SKY/WX    TMP DP  RH WIND       PRES   REMARKS
ALPENA         CLEAR     58  54  86 CALM      29.90S
BEAVER ISLAND  CLEAR     64  56  75 CALM      29.87F
BELLAIRE       CLEAR     60  57  89 CALM      29.90S
CADILLAC       PTCLDY    62  60  95 CALM      29.95S
CHARLEVOIX     CLEAR     63  57  80 S3        29.91F
FRANKFORT      CLEAR     62  60  93 CALM      29.92S
GAYLORD        CLEAR     61  55  81 CALM      29.92S
GRAYLING       CLEAR     59  53  81 CALM      29.93S
HARBOR SPRINGS CLEAR     61  56  82 CALM      29.88F
HOUGHTON LAKE  CLOUDY    72  56  57 W8        29.94R
MANISTEE       CLEAR     64  57  77 CALM      29.94S
OSCODA         CLEAR     65  61  86 CALM      29.90S
PELLSTON       CLEAR     54  52  93 CALM      29.88F
ROGERS CITY    CLEAR     62  55  78 SW6       29.89S
TRAVERSE CITY  CLEAR     73  57  57 W3        29.89S
$$
MIZ007>008-015-310500-
EASTERN UPPER MICHIGAN

CITY           SKY/WX    TMP DP  RH WIND       PRES   REMARKS
KINROSS        CLOUDY    63  54  72 S5        29.85F
MACKINAC ISLAN PTCLDY    67  57  70 S8        29.86S
$$
MIZ004>006-011>014-085-310500-
CENTRAL UPPER MICHIGAN

CITY           SKY/WX    TMP DP  RH WIND       PRES   REMARKS
ESCANABA       CLEAR     66  55  68 W9        29.88S
MENOMINEE      MOCLDY    66  57  72 W5        29.91S
SAWYER-GWINN   CLEAR     67  56  68 W9        29.89S
$$
MIZ001>003-009>011-084-310500-
WESTERN UPPER MICHIGAN

CITY           SKY/WX    TMP DP  RH WIND       PRES   REMARKS
IRON MOUNTAIN  CLEAR     65  58  78 VRB3      29.90F
HOUGHTON       LGT RAIN  59  56  89 NW6       29.86F
COPPER HARBOR    N/A     62  56  80 VRB7      29.82F
IRONWOOD       CLEAR     63  55  77 W9        29.90S
$$

ABBREVIATIONS USED IN REMARKS
   TC - TEMPERATURE IN CELSIUS
  WCI - WIND CHILL INDEX
   HX - HEAT INDEX
  VSB - VISIBILITY



USA.gov is the U.S. government's official web portal to all federal, state and local government web resources and services.